Regional Weather Roundup
Issued by NWS

Home | Current Version | Previous Version | Graphics & Text | Print | Product List | Glossary Off
Versions: 1 2 3 4 5 6 7 8 9 10 11 12 13 14 15 16 17 18 19 20 21 22 23 24 25 26 27 28 29 30 31 32 33 34 35 36 37 38 39 40 41 42 43 44 45 46 47 48 49 50

000
ASUS43 KTOP 250659
RWRKS

WEATHER ROUNDUP FOR KANSAS
NATIONAL WEATHER SERVICE GOODLAND KS
100 AM CST THU DEC 25 2014

NOTE:  "FAIR" INDICATES FEW OR NO CLOUDS BELOW 12,000 FEET WITH NO
SIGNIFICANT WEATHER AND/OR OBSTRUCTIONS TO VISIBILITY.

KSZ001>006-013>018-027>032-041>047-250800-
NORTHWEST KANSAS

CITY           SKY/WX    TMP DP  RH WIND       PRES   REMARKS
GOODLAND       CLOUDY    32  22  66 S10       29.48F WCI  24
HAYS           MOCLDY    30  16  55 S6        29.62S
HILL CITY      CLOUDY    35  16  45 SW3       29.57F
RUSSELL        MOCLDY    34  22  61 S18       29.62F WCI  23
$$

KSZ061>065-074>080-084>089-250800-
SOUTHWEST KANSAS

CITY           SKY/WX    TMP DP  RH WIND       PRES   REMARKS
DODGE CITY     PTCLDY    31  17  56 S15       29.62F WCI  20
ELKHART          N/A     36  14  40 SW13        N/A  WCI  27
GARDEN CITY    CLOUDY    29  20  69 S8        29.58F
GREAT BEND     PTCLDY    34  19  55 S15       29.66F WCI  24
LIBERAL        CLOUDY    28  16  59 S10       29.62F WCI  19
$$

KSZ066>073-081>083-090>101-250800-
SOUTHEAST KANSAS

CITY           SKY/WX    TMP DP  RH WIND       PRES   REMARKS
CHANUTE        CLEAR     31  28  89 S9        29.85S
COFFEYVILLE    CLEAR     30  28  92 S7        29.87F
HUTCHINSON     MOCLDY    34  22  61 S12       29.72F WCI  25
NEWTON         PTCLDY    32  21  64 S14       29.75F WCI  22
PARSONS        CLEAR     30  28  92 S6        29.87S
WICHITA INTL   PTCLDY    33  24  69 S15       29.76F WCI  23
WICHITA JABRA  CLEAR     32  23  69 S13       29.75F WCI  22
WINFIELD       CLEAR     32  26  78 S12       29.82F WCI  23
$$

KSZ007>012-019>026-033>040-048>060-102>105-250800-
NORTHEAST KANSAS

CITY           SKY/WX    TMP DP  RH WIND       PRES   REMARKS
CONCORDIA      CLOUDY    33  24  69 S18       29.65F WCI  22
EMPORIA        CLEAR     28  25  88 S14       29.77F WCI  17
LAWRENCE       CLEAR     29  26  89 SE7       29.81S
MANHATTAN      PTCLDY    28  24  85 CALM      29.73F
OLATHE IND     CLEAR     29  27  92 S9        29.81S
OLATHE EXE     CLEAR     31  28  89 S9        29.81R
SALINA         MOCLDY    36  24  62 S14       29.70F WCI  27
TOPEKA BILLARD CLEAR     34  29  82 S12       29.76F WCI  25
TOPEKA FORBES  CLEAR     32  28  85 S9        29.76F
$$



USA.gov is the U.S. government's official web portal to all federal, state and local government web resources and services.